[[{"header":{"parameterUnit":"m.s-1","parameterCategory":1,"la1":30.2991,"la2":30.254,"lo1":-89.0895,"lo2":-89.0444,"dy":0.0017,"dx":0.0017,"nx":28,"ny":28,"refTime":"2024-08-29T21:00:00:Z","depth":0,"parameterNumber":2,"parameterNumberName":"U-component_of_WINDS"},"data":[0,0,0,0,0,0,0,0,0,0,0,0,0,0,0,0,0,0,0,0,0,0,0,0,0,0,0,0,0,0,0,0,0,0,0,0,0,0,0,0,0,0,0,0,0,0,0,0,0,0,0,0,0,0,0,0,0,0,-1.9279,-1.9279,0,-1.9244,-1.9243,-1.9243,-1.9184,-1.9183,-1.9182,-1.9181,-1.9146,-1.9146,-1.9146,0,0,0,0,0,0,0,0,0,0,0,0,0,-1.9297,-1.9297,-1.9279,-1.9278,-1.9278,-1.9244,-1.9243,-1.9243,-1.9185,-1.9183,-1.9182,-1.9181,-1.9146,-1.9146,-1.9146,0,0,0,0,0,0,0,0,0,0,0,0,0,-1.9278,-1.9297,-1.9279,-1.9245,-1.9241,-1.9244,-1.9243,-1.9242,-1.9185,-1.9183,-1.9182,-1.918,-1.9146,-1.9146,-1.9146,-1.9179,0,0,-1.9147,-1.9147,0,0,0,0,0,0,0,0,-1.9279,-1.9277,-1.925,-1.9247,-1.9243,-1.9217,-1.9236,-1.9221,-1.9185,-1.9206,-1.9181,-1.9179,-1.9171,-1.9169,-1.9166,-1.9178,-1.9176,-1.9147,-1.9147,-1.9147,-1.9147,0,0,0,0,0,0,0,-1.9281,-1.9279,-1.9265,-1.925,-1.9246,-1.9231,-1.9227,-1.9233,-1.9198,-1.9204,-1.92,-1.9197,-1.9169,-1.9166,-1.9165,-1.9176,-1.9147,-1.9147,-1.9147,-1.9147,-1.9211,-1.9213,0,0,0,0,0,0,-1.9287,-1.928,-1.9266,-1.9264,-1.9258,-1.9233,-1.9228,-1.9227,-1.9198,-1.9192,-1.9198,-1.9194,-1.9167,-1.9165,-1.9163,-1.9198,-1.9147,-1.9147,-1.9147,-1.9209,-1.9211,-1.9213,0,0,0,0,0,0,-1.9287,-1.9286,-1.9267,-1.9271,-1.9267,-1.9234,-1.9234,-1.9227,-1.9224,-1.9193,-1.9187,-1.9201,-1.9165,-1.9163,-1.9175,-1.9196,-1.9147,-1.9147,-1.9207,-1.921,-1.9212,-1.927,0,0,0,0,0,0,-1.9288,-1.9287,-1.9299,-1.9271,-1.9267,-1.928,-1.9235,-1.9228,-1.9224,-1.9219,-1.9195,-1.9189,-1.9164,-1.9175,-1.9175,-1.9195,-1.9147,-1.9205,-1.9209,-1.9212,-1.9266,-1.9274,-1.9281,0,0,0,0,0,-1.9289,-1.9317,-1.93,-1.9298,-1.9282,-1.9281,-1.9279,-1.9249,-1.9226,-1.9238,-1.9218,-1.919,-1.9195,-1.9177,-1.9177,-1.9197,-1.9204,-1.9208,-1.9211,-1.9263,-1.9272,-1.9281,0,0,0,0,0,0,-1.9348,-1.9313,-1.9293,-1.9313,-1.9301,-1.9272,-1.9285,-1.9261,-1.9255,-1.925,-1.9213,-1.9208,-1.9225,-1.9212,-1.9194,-1.9227,-1.9195,-1.9199,-1.9234,-1.9243,-1.925,-1.9252,-1.9147,0,0,0,0,0,-1.9363,-1.9366,-1.9335,-1.9356,-1.935,-1.9319,-1.9318,-1.9296,-1.9282,-1.9276,-1.9257,-1.9245,-1.9243,-1.9243,-1.924,-1.9265,-1.9258,-1.9278,-1.9286,-1.9292,-1.9295,-1.9306,-1.9314,-1.9225,-1.9225,-1.9225,0,0,-1.9395,-1.9376,-1.938,-1.9367,-1.9355,-1.9358,-1.9315,-1.9321,-1.9323,-1.9277,-1.9287,-1.9273,-1.9256,-1.9274,-1.9282,-1.9265,-1.9319,-1.9297,-1.9302,-1.9302,-1.931,-1.9319,-1.9326,-1.9228,-1.9227,-1.9227,0,0,-1.9454,-1.9441,-1.9455,-1.9444,-1.9425,-1.9404,-1.9408,-1.9383,-1.9371,-1.9381,-1.9346,-1.9348,-1.9347,-1.9335,-1.933,-1.9384,-1.9358,-1.9385,-1.9423,-1.9434,-1.9441,-1.9447,-1.9464,-1.9471,-1.9388,-1.9388,-1.9389,0,-1.9496,-1.9499,-1.9466,-1.9473,-1.9468,-1.9427,-1.9441,-1.9432,-1.9414,-1.9411,-1.9393,-1.9389,-1.9375,-1.9389,-1.9403,-1.94,-1.9402,-1.9386,-1.9443,-1.9448,-1.9453,-1.947,-1.9477,-1.9392,-1.9391,-1.9391,-1.9391,0,-1.955,-1.9553,-1.9567,-1.955,-1.9546,-1.9558,-1.9527,-1.9527,-1.9506,-1.9487,-1.9496,-1.9478,-1.947,-1.9472,-1.9451,-1.9483,-1.9473,-1.9449,-1.9416,-1.9465,-1.948,-1.9486,-1.9396,-1.9395,-1.9394,-1.9393,0,0,-1.9644,-1.9608,-1.9614,-1.9605,-1.9582,-1.9583,-1.9592,-1.9584,-1.9584,-1.9574,-1.9579,-1.9579,-1.9556,-1.955,-1.9528,-1.9537,-1.9579,-1.9512,-1.9511,-1.9524,-1.9611,-1.9628,-1.9636,-1.9562,-1.9563,-1.9564,-1.9612,0,-1.9697,-1.9709,-1.968,-1.97,-1.9701,-1.9662,-1.967,-1.9656,-1.9639,-1.9638,-1.9619,-1.9618,-1.9589,-1.9585,-1.9593,-1.9573,-1.9596,-1.9569,-1.9566,-1.9567,-1.957,-1.9644,-1.9661,-1.9707,-1.9618,-1.9619,-1.9619,0,-1.976,-1.9751,-1.9771,-1.9745,-1.9745,-1.9752,-1.9741,-1.9741,-1.9724,-1.9711,-1.9704,-1.9677,-1.9684,-1.9653,-1.9661,-1.9643,-1.9641,-1.9631,-1.9632,-1.9629,-1.9595,-1.9641,-1.9721,-1.9727,-1.9628,-1.9628,-1.9627,0,-1.9824,-1.9818,-1.9828,-1.9822,-1.9793,-1.9799,-1.9787,-1.9769,-1.9765,-1.9756,-1.9753,-1.9746,-1.9741,-1.9735,-1.9707,-1.9688,-1.9718,-1.9685,-1.9706,-1.9707,-1.9713,-1.9712,-1.9792,-1.9714,-1.9714,-1.9714,-1.9714,0,-1.9885,-1.9898,-1.9856,-1.9863,-1.9876,-1.9843,-1.9857,-1.9841,-1.9825,-1.9828,-1.9794,-1.9797,-1.9761,-1.976,-1.9738,-1.9747,-1.9746,-1.9734,-1.9728,-1.9736,-1.9737,-1.9732,-1.9728,-1.9716,-1.9716,-1.9715,-1.9715,0,-1.9959,-1.9931,-1.994,-1.9911,-1.9905,-1.9915,-1.9891,-1.9895,-1.9876,-1.9879,-1.9878,-1.9847,-1.9844,-1.9816,-1.9807,-1.9792,-1.9808,-1.9797,-1.9814,-1.9809,-1.9831,-1.9828,-1.9908,-1.9916,-1.9836,-1.9837,-1.9837,0,-1.9998,-2.0007,-1.998,-1.9978,-1.9968,-1.9967,-1.9963,-1.993,-1.9927,-1.9909,-1.9915,-1.9909,-1.9902,-1.9899,-1.9876,-1.9868,-1.9855,-1.9884,-1.9854,-1.9861,-1.9853,-1.9852,-1.9852,-1.9889,-1.9891,-1.9891,-1.9892,0,-2.0071,-2.0057,-2.0052,-2.0042,-2.0038,-2.0029,-2.0018,-2.0019,-1.9983,-1.9981,-1.9977,-1.9972,-1.9962,-1.9955,-1.9944,-1.9931,-1.9905,-1.9902,-1.9906,-1.9913,-1.9922,-1.9915,-1.9829,-1.99,-1.9899,-1.9898,-1.9898,-1.9898,-2.0128,-2.0133,-2.0114,-2.0109,-2.0097,-2.0088,-2.009,-2.007,-2.0066,-2.0055,-2.0036,-2.0034,-2.0017,-1.9998,-1.9988,-1.9986,-1.9971,-1.9977,-1.9978,-1.998,-1.9983,-1.9924,-1.9984,-1.9984,-1.9983,-1.9983,-1.9983,0,-2.0197,-2.0183,-2.0179,-2.0164,-2.016,-2.0136,-2.0122,-2.012,-2.0119,-2.0105,-2.0098,-2.0093,-2.0087,-2.0063,-2.0054,-2.0057,-2.0044,-2.0055,-2.0054,-2.0051,-1.9998,-1.9995,-2.0065,-2.0065,-2.0065,-2.0065,-2.0065,-2.0065,-2.0233,-2.024,-2.0224,-2.0225,-2.021,-2.0208,-2.0201,-2.0192,-2.018,-2.0175,-2.017,-2.0154,-2.0136,-2.0125,-2.0118,-2.0111,-2.0108,-2.0123,-2.0112,-2.0063,-2.0055,-2.0047,-2.0044,-2.0123,-2.0123,-2.0164,-2.0164,-2.0165]},{"header":{"parameterUnit":"m.s-1","parameterCategory":1,"la1":30.2991,"la2":30.254,"lo1":-89.0895,"lo2":-89.0444,"dy":0.0017,"dx":0.0017,"nx":28,"ny":28,"refTime":"2024-08-29T21:00:00:Z","depth":0,"parameterNumber":3,"parameterNumberName":"V-component_of_WINDS"},"data":[0,0,0,0,0,0,0,0,0,0,0,0,0,0,0,0,0,0,0,0,0,0,0,0,0,0,0,0,0,0,0,0,0,0,0,0,0,0,0,0,0,0,0,0,0,0,0,0,0,0,0,0,0,0,0,0,0,0,3.5791,3.5792,0,3.5841,3.5841,3.5842,3.5786,3.5784,3.5782,3.578,3.5826,3.5829,3.5832,0,0,0,0,0,0,0,0,0,0,0,0,0,3.5644,3.5647,3.5791,3.5792,3.5792,3.5841,3.5841,3.5842,3.5786,3.5784,3.5781,3.5779,3.5825,3.5828,3.5832,0,0,0,0,0,0,0,0,0,0,0,0,0,3.5702,3.5648,3.5791,3.5771,3.5769,3.584,3.5841,3.5842,3.5787,3.5783,3.578,3.5777,3.5823,3.5828,3.5833,3.5925,0,0,3.5847,3.585,0,0,0,0,0,0,0,0,3.5699,3.5707,3.5773,3.5772,3.5771,3.5804,3.5806,3.587,3.5787,3.578,3.5779,3.5776,3.5821,3.5826,3.5842,3.5928,3.5929,3.5848,3.5851,3.5853,3.5854,0,0,0,0,0,0,0,3.5695,3.5705,3.5811,3.5774,3.5773,3.5757,3.5762,3.5818,3.5817,3.578,3.5776,3.5783,3.5819,3.5837,3.5842,3.593,3.5848,3.5852,3.5855,3.5857,3.6093,3.6096,0,0,0,0,0,0,3.5694,3.5702,3.5809,3.5812,3.5726,3.5762,3.5768,3.5796,3.5816,3.5817,3.5786,3.578,3.583,3.5837,3.5844,3.5952,3.5853,3.5857,3.586,3.609,3.6094,3.6098,0,0,0,0,0,0,3.5691,3.5704,3.5807,3.5756,3.5768,3.5768,3.5801,3.5799,3.5817,3.5821,3.582,3.5804,3.5828,3.5837,3.5905,3.5953,3.5859,3.5864,3.6086,3.6091,3.6096,3.6171,0,0,0,0,0,0,3.5687,3.5703,3.5739,3.5757,3.5771,3.587,3.5804,3.5802,3.5825,3.5819,3.5838,3.5838,3.5826,3.5899,3.591,3.5958,3.5867,3.6081,3.6088,3.6094,3.6164,3.6178,3.619,0,0,0,0,0,3.5682,3.5758,3.5741,3.5755,3.5817,3.5873,3.588,3.5867,3.583,3.5865,3.5868,3.5837,3.5947,3.5906,3.5919,3.5969,3.6078,3.6086,3.6094,3.6159,3.6176,3.619,0,0,0,0,0,0,3.5744,3.576,3.5742,3.5826,3.5849,3.5863,3.5907,3.5885,3.5917,3.5909,3.589,3.5895,3.5968,3.5975,3.593,3.6059,3.6006,3.6017,3.6051,3.6067,3.608,3.6076,3.5871,0,0,0,0,0,3.5768,3.5814,3.5824,3.5898,3.591,3.5907,3.5931,3.5919,3.594,3.5949,3.5957,3.5978,3.6016,3.6042,3.6078,3.6166,3.6168,3.6206,3.6219,3.623,3.6238,3.6284,3.6301,3.6123,3.6123,3.6123,0,0,3.5817,3.5831,3.5861,3.5911,3.5926,3.5973,3.5915,3.5967,3.6,3.5956,3.6022,3.6028,3.605,3.6128,3.6163,3.6137,3.6288,3.6239,3.6248,3.6251,3.6294,3.631,3.6325,3.6128,3.6127,3.6126,0,0,3.593,3.5946,3.6009,3.6026,3.6051,3.6049,3.6064,3.6082,3.6085,3.6151,3.6119,3.6157,3.6225,3.6242,3.6259,3.6379,3.6352,3.6391,3.6458,3.6502,3.6516,3.6529,3.657,3.6585,3.64,3.6401,3.6401,0,3.5987,3.6057,3.6043,3.6097,3.6119,3.6084,3.6146,3.6163,3.6198,3.6213,3.6184,3.6268,3.628,3.6361,3.639,3.6406,3.6421,3.6388,3.6516,3.6528,3.6539,3.6578,3.6594,3.6405,3.6405,3.6404,3.6404,0,3.6126,3.6175,3.6222,3.6258,3.6286,3.6344,3.6337,3.6366,3.6352,3.6352,3.6419,3.6433,3.647,3.6489,3.6475,3.6568,3.6551,3.6519,3.6465,3.6561,3.6597,3.6612,3.6412,3.641,3.6409,3.6407,0,0,3.6279,3.6307,3.6325,3.634,3.6366,3.6402,3.6458,3.6496,3.6521,3.6547,3.6592,3.665,3.6621,3.6641,3.6628,3.6668,3.676,3.6631,3.6631,3.6653,3.6862,3.6885,3.6903,3.6743,3.6746,3.6748,3.686,0,3.6391,3.6489,3.6479,3.6571,3.6615,3.6582,3.663,3.665,3.6652,3.6688,3.6689,3.6731,3.669,3.6701,3.6739,3.6741,3.6801,3.6733,3.6783,3.6785,3.6777,3.6922,3.6947,3.7052,3.6874,3.6876,3.6878,0,3.6536,3.6568,3.6665,3.6684,3.6702,3.6745,3.6779,3.6815,3.6836,3.6835,3.6858,3.6838,3.6892,3.6839,3.6912,3.6866,3.6885,3.689,3.6893,3.6896,3.6836,3.6928,3.7085,3.71,3.6901,3.6899,3.6897,0,3.6636,3.6704,3.677,3.6785,3.6808,3.684,3.685,3.6869,3.6892,3.6922,3.6936,3.6971,3.699,3.7017,3.7007,3.6969,3.7082,3.7028,3.7081,3.7081,3.7105,3.7103,3.7266,3.712,3.712,3.7119,3.7119,0,3.6762,3.6823,3.6816,3.6857,3.6923,3.691,3.6976,3.6982,3.6999,3.7039,3.7012,3.705,3.7035,3.7072,3.7065,3.7126,3.7135,3.7134,3.7131,3.7136,3.7136,3.7147,3.7139,3.7124,3.7123,3.7122,3.7121,0,3.6885,3.6883,3.6954,3.697,3.6976,3.7024,3.7037,3.7075,3.7075,3.7126,3.7137,3.7137,3.7179,3.7172,3.7218,3.7213,3.7289,3.7278,3.7282,3.7279,3.7332,3.7327,3.7507,3.753,3.737,3.7372,3.7373,0,3.6966,3.7012,3.7034,3.706,3.7073,3.7115,3.7139,3.7127,3.7153,3.7181,3.7215,3.7255,3.7286,3.7355,3.7357,3.7392,3.7381,3.7442,3.7386,3.7389,3.738,3.7377,3.7381,3.7452,3.7454,3.7456,3.7457,0,3.7108,3.7105,3.7142,3.7178,3.7208,3.7236,3.7261,3.7284,3.7274,3.7304,3.7347,3.7372,3.7419,3.7459,3.7492,3.7501,3.7477,3.7475,3.7489,3.7493,3.7494,3.7493,3.7311,3.747,3.7469,3.7468,3.7467,3.7467,3.7211,3.7251,3.7272,3.7314,3.7332,3.7356,3.7392,3.7397,3.7433,3.7472,3.7462,3.7511,3.753,3.7572,3.7585,3.7622,3.7599,3.7619,3.7624,3.7629,3.7635,3.7489,3.7628,3.7627,3.7627,3.7627,3.7626,0,3.7352,3.7364,3.7403,3.7439,3.7471,3.7448,3.7474,3.7502,3.7546,3.7567,3.7598,3.7648,3.7686,3.7692,3.7728,3.7756,3.7746,3.7766,3.7763,3.7765,3.7654,3.7638,3.7773,3.7773,3.7773,3.7773,3.7773,3.7773,3.7428,3.7493,3.7492,3.7565,3.7576,3.7625,3.7642,3.7663,3.768,3.7736,3.7768,3.7773,3.7787,3.7824,3.7857,3.7858,3.7871,3.7895,3.7892,3.7788,3.7773,3.7759,3.7744,3.7899,3.7899,3.7999,3.8,3.8001]}]]